User: anonymous   Login
Location: Kailua
(21.4020°N, 157.7390°W)
Time: 22:59:11
(UTC-10:00)
Language:

Cosmos 2221 Rocket - Orbit

View from above orbital plane
View from above orbital plane
View from above satellite
View from above satellite

Ground track
Ground track

The orbit data is extracted from the following two-line orbital elements,

1 22237U 92080B   15064.38635206  .00000507  00000-0  66713-4 0  9993
2 22237 082.5148 174.1746 0021021 057.5759 338.8064 14.78076361200119
Epoch (UTC): 05 March 2015 09:16:20
Eccentricity: 0.0021021
inclination: 82.5148°
perigee height: 620 km
apogee height: 650 km
right ascension of ascending node: 174.1746°
argument of perigee: 57.5759°
revolutions per day: 14.78076361
mean anomaly at epoch: 338.8064°
orbit number at epoch: 20011

The dashed part of the orbit path shows where the satellite is in the earth's shadow,  

DLR